Showing default

COSMOS 80, 1570

Orbit data source: Space-Track

COSMOS 80, 1570 is a payload satellite owned by OKB-10 (CIS) in LEO that was launched on Fri, 03 Sep 1965 UTC via a KOSMOS 65S3 launch vehicle from the Tyuratam Missile And Space Complex (TTMTR). Payload-class satellites include a variety of spacecraft equipped with specific instruments for various scientific and technological missions. These include communications satellites like Starlink; space stations such as the ISS; scientific satellites like the Hubble; Earth observation satellites from companies like Planet Labs, Umbra, and HawkEye 360; GPS; miniature CubeSats for education and research; and military/defense satellites.

Loading next visibility...
Identifier
1570, 1965-070A
Orbit
LEO
Last TLE update
16 hours ago
Origin
Manufacturer
OKB-10
Mission
Defense Communications
Bus & Motor
STRELA-1 11F610, Unknown motor
Mass
50 kg wet, 50 kg dry
Launch date (UTC)
1965-09-03 (60 years ago)
Launch vehicle
KOSMOS 65S3
Launch site
Tyuratam Missile And Space Complex (TTMTR)
Object type
Payload
Rocket body
Debris
Shape & HBR
Poly, 0.8 m
Radar Cross Section
0.731 m², Medium (>0.1 m² and < 1m²)

Expand to show TLE details & history

TLE from 16 hours ago
0 COSMOS 80
1 01570U 65070A   25189.58748799 -.00000099  00000-0 -20183-4 0  9991
2 01570  56.0581 322.8660 0099934 215.1893 248.3598 12.52794200738290
Epoch: 2025-07-08T14:05Z
TLE epoch observation values (Epoch: 2025-07-08T14:05:58.962Z)
Latitude
54.22246°
Longitude
-63.74936°
Altitude
1,489.561 km
Speed
7.111 km/s
True Right ascension
04h 58m 06s
True Declination
54° 04' 28"
Sunlit
Object was in daylight at epoch
Visualization orbit readout
Latitude
-31.16883°
Longitude
158.8295°
Altitude
1,482.921 km
Speed
7.113 km/s
Apparent Right ascension
22h 04m 03s
Apparent Declination
-73° 16' 16"
Sunlit
Object is in full shadow
Visualization observer readout
Local Sidereal Time
18:43:52
Azimuth
165.499° S
Elevation
-28.212°
Doppler factor
1
Orbital elements
Apogee altitude
1,530.908 km
Perigee altitude
1,374.396 km
Semi-major axis
7,830.789 km
Eccentricity
0.00999
Inclination
56.0581°
RAAN
322.866°
Arg. of periapsis
215.1893°
True anomaly
Unknown
Mean anomaly
248.3598°
Eccentric anomaly
Unknown
Mean motion
3.13209 °/min
Orbital period
114.94 mins
BSTAR
-0.000020183
Loading maneuver chart data...
Loading SW <> Apogee altitude chart data...
Loading historical data...
Loading historical data...
Loading historical data...
Loading historical data...
Loading historical data...
Loading historical data...
Loading historical data...
Other satellites on launch #70 in the year 1965 (1965-09-03 UTC)

COSMOS 80 Visibility forecast

Observer location: undefined°, undefined°

Span
Click to sort rows by Start time (UTC) header in descending order
Start Az.
Max El. time (UTC)
Max El. Az.
Max El.
End time (UTC)
End Az.
7 mins2025-07-09 08:49:30.849Z134.577° SE2025-07-09 08:52:30.849Z114.521° SE13.565°2025-07-09 08:56:30.849Z87.437° E
16 mins2025-07-09 10:44:30.849Z204.02° SW2025-07-09 10:51:30.849Z132.64° SE42.091°2025-07-09 11:00:30.849Z49.986° ENE
16 mins2025-07-09 12:44:30.849Z260.052° W2025-07-09 12:52:30.849Z334.109° NNW36.171°2025-07-09 13:00:30.849Z40.889° NE
13 mins2025-07-09 14:48:30.849Z305.502° NW2025-07-09 14:54:30.849Z353.611° N25.562°2025-07-09 15:01:30.849Z50.013° ENE
15 mins2025-07-09 16:50:30.849Z321.854° NNW2025-07-09 16:57:30.849Z23.704° NE31.936°2025-07-09 17:05:30.849Z90.349° ESE
15 mins2025-07-09 18:51:30.849Z313.129° NW2025-07-09 18:58:30.849Z235.875° WSW44.841°2025-07-09 19:06:30.849Z140.832° SSE
9 mins2025-07-09 20:53:30.849Z277.651° WNW2025-07-09 20:57:30.849Z245.472° WSW19.276°2025-07-09 21:02:30.849Z206.643° SW
|